WD9EKA Weather Reports


time (UTC)temp
C
wind
direction
speed
KPH
gust
KPH
rain 1hr
cm
rain 24hr
cm
rain mn
cm
humidity
%
barometer
mb
20260504012734 15 219 0.0 1.6 0.00 0.00 0.00 60 1005.8
20260504012232 15 201 0.0 0.0 0.00 0.00 0.00 60 1005.6
20260504011713 15 192 0.0 0.0 0.00 0.00 0.00 59 1005.5
20260504011153 16 220 0.0 1.6 0.00 0.00 0.00 60 1005.6
20260504010634 16 160 1.6 1.6 0.00 0.00 0.00 60 1005.5
20260504010129 16 258 4.8 6.4 0.00 0.00 0.00 59 1005.5
20260504005609 16 216 0.0 1.6 0.00 0.00 0.00 60 1005.5
20260504005049 16 206 1.6 3.2 0.00 0.00 0.00 60 1005.6
20260504004529 16 183 0.0 0.0 0.00 0.00 0.00 59 1005.6
20260504004009 16 227 3.2 4.8 0.00 0.00 0.00 60 1005.5
20260504003449 16 227 0.0 1.6 0.00 0.00 0.00 60 1005.7
20260504002933 16 209 1.6 3.2 0.00 0.00 0.00 59 1005.6
20260504002334 16 238 4.8 8.0 0.00 0.00 0.00 59 1005.7
20260504001733 16 214 9.7 12.9 0.00 0.00 0.00 57 1005.7
20260504001133 17 217 3.2 3.2 0.00 0.00 0.00 58 1005.5
20260504000534 17 192 9.7 12.9 0.00 0.00 0.00 55 1005.4
20260504000025 17 241 4.8 9.7 0.00 0.00 0.00 57 1005.6
20260503235506 17 216 8.0 8.0 0.00 0.00 0.00 56 1005.5
20260503234934 17 229 4.8 6.4 0.00 0.00 0.00 57 1005.7
20260503234334 17 221 4.8 6.4 0.00 0.00 0.00 54 1005.7
20260503233833 17 197 6.4 9.7 0.00 0.00 0.00 54 1005.9
20260503233313 17 207 4.8 9.7 0.00 0.00 0.00 55 1006.0
20260503232753 17 231 4.8 6.4 0.00 0.00 0.00 55 1006.3
20260503232233 17 196 8.0 9.7 0.00 0.00 0.00 54 1006.4
20260503231729 17 224 3.2 4.8 0.00 0.00 0.00 55 1006.7
20260503231209 17 215 16.1 22.5 0.00 0.00 0.00 54 1006.7
20260503230649 17 228 6.4 8.0 0.00 0.00 0.00 56 1006.5
20260503230129 17 230 1.6 3.2 0.00 0.00 0.00 54 1006.2
20260503225610 17 229 3.2 4.8 0.00 0.00 0.00 55 1006.4
20260503225049 17 216 12.9 16.1 0.00 0.00 0.00 54 1006.6
20260503224010 17 191 8.0 9.7 0.00 0.00 0.00 54 1007.0
20260503222933 17 233 4.8 6.4 0.00 0.00 0.00 56 1006.9
20260503222425 17 227 4.8 6.4 0.00 0.00 0.00 59 1007.0
20260503221906 17 229 9.7 14.5 0.00 0.00 0.00 56 1007.1
20260503221345 17 222 8.0 9.7 0.00 0.00 0.00 55 1006.9
20260503220833 16 241 6.4 8.0 0.00 0.00 0.00 58 1006.9
20260503220233 16 221 12.9 16.1 0.00 0.00 0.00 57 1007.1
20260503215729 16 213 3.2 4.8 0.00 0.00 0.00 55 1006.7
20260503215210 16 234 14.5 17.7 0.00 0.00 0.00 54 1006.7
20260503214649 16 169 12.9 19.3 0.00 0.00 0.00 55 1006.6
20260503214129 16 220 6.4 8.0 0.00 0.00 0.00 56 1006.3
20260503213610 16 268 4.8 12.9 0.00 0.00 0.00 57 1006.6
20260503213049 16 203 11.3 16.1 0.00 0.00 0.00 55 1006.7
20260503212529 17 192 8.0 9.7 0.00 0.00 0.00 58 1007.1
20260503212009 17 238 14.5 19.3 0.00 0.00 0.00 57 1007.3
20260503211449 17 188 14.5 20.9 0.00 0.00 0.00 55 1007.3
20260503210929 17 194 4.8 6.4 0.00 0.00 0.00 57 1007.2
20260503210410 16 215 8.0 12.9 0.00 0.00 0.00 56 1007.4
20260503205849 16 218 14.5 17.7 0.00 0.00 0.00 56 1007.5
20260503205329 16 208 6.4 8.0 0.00 0.00 0.00 58 1007.6
20260503204809 16 206 8.0 9.7 0.00 0.00 0.00 55 1007.9
20260503204249 16 248 12.9 16.1 0.00 0.00 0.00 55 1007.7
20260503203730 16 221 12.9 17.7 0.00 0.00 0.00 55 1008.1
20260503203210 16 199 4.8 6.4 0.00 0.00 0.00 59 1008.1
20260503202649 16 164 9.7 17.7 0.00 0.00 0.00 58 1008.3
20260503202129 16 240 8.0 9.7 0.00 0.00 0.00 59 1008.2
20260503201610 16 229 8.0 9.7 0.00 0.00 0.00 57 1007.8
20260503201049 16 150 6.4 12.9 0.00 0.00 0.00 54 1007.7
20260503200529 16 236 6.4 9.7 0.00 0.00 0.00 58 1008.4
20260503200011 16 219 6.4 6.4 0.00 0.00 0.00 54 1008.8
20260503195449 16 218 3.2 6.4 0.00 0.00 0.00 57 1009.3
20260503194929 16 211 17.7 20.9 0.00 0.00 0.00 54 1009.6
20260503194410 15 213 8.0 16.1 0.00 0.00 0.00 55 1009.5
20260503193849 15 207 8.0 12.9 0.00 0.00 0.00 54 1009.6
20260503193329 15 242 16.1 17.7 0.00 0.00 0.00 54 1009.8
20260503192810 15 214 11.3 16.1 0.00 0.00 0.00 56 1010.0
20260503192249 15 207 6.4 9.7 0.00 0.00 0.00 56 1010.4
20260503191730 15 204 16.1 20.9 0.00 0.00 0.00 57 1010.2
20260503191210 15 215 16.1 17.7 0.00 0.00 0.00 56 1010.1
20260503190649 15 193 9.7 12.9 0.00 0.00 0.00 54 1010.3
20260503190129 16 229 12.9 14.5 0.00 0.00 0.00 56 1010.0
20260503185610 16 228 19.3 22.5 0.00 0.00 0.00 58 1010.1
20260503185050 16 248 9.7 17.7 0.00 0.00 0.00 61 1010.1
20260503184530 16 227 17.7 19.3 0.00 0.00 0.00 60 1010.3
20260503183953 16 231 6.4 8.0 0.00 0.00 0.00 56 1010.4
20260503183433 16 229 11.3 17.7 0.00 0.00 0.00 57 1010.9
20260503182913 16 214 9.7 14.5 0.00 0.00 0.00 57 1010.5
20260503182353 16 214 8.0 9.7 0.00 0.00 0.00 58 1010.4
20260503181833 16 230 14.5 19.3 0.00 0.00 0.00 58 1011.0
20260503181314 16 174 9.7 14.5 0.00 0.00 0.00 56 1011.0
20260503180753 16 207 19.3 27.4 0.00 0.00 0.00 60 1010.8
20260503180234 16 207 8.0 9.7 0.00 0.00 0.00 59 1011.1
20260503175714 16 229 8.0 17.7 0.00 0.00 0.00 60 1011.1
20260503175154 16 200 14.5 24.1 0.00 0.00 0.00 56 1011.4
20260503174633 16 223 19.3 24.1 0.00 0.00 0.00 58 1011.5
20260503174113 16 161 19.3 24.1 0.00 0.00 0.00 57 1011.9
20260503173553 16 224 8.0 8.0 0.00 0.00 0.00 62 1011.6
20260503173033 15 133 8.0 14.5 0.00 0.00 0.00 58 1012.0
20260503172514 15 223 9.7 12.9 0.00 0.00 0.00 60 1012.3
20260503171954 15 210 19.3 24.1 0.00 0.00 0.00 63 1012.6
20260503171433 15 208 6.4 8.0 0.00 0.00 0.00 58 1012.5
20260503170914 15 189 8.0 9.7 0.00 0.00 0.00 59 1012.6
20260503170354 15 219 11.3 14.5 0.00 0.00 0.00 64 1012.5
20260503150634 12 263 8.0 9.7 0.00 0.00 0.00 66 1014.1
20260503150115 12 229 9.7 12.9 0.00 0.00 0.00 63 1014.2
20260503131122 10 211 6.4 8.0 0.00 0.00 0.00 77 1014.5
20260503130602 10 217 3.2 3.2 0.00 0.00 0.00 79 1014.4
20260503120133 6 226 4.8 4.8 0.00 0.00 0.00 82 1014.1
20260503110733 5 217 1.6 3.2 0.00 0.00 0.00 78 1014.2
20260503110134 5 243 0.0 1.6 0.00 0.00 0.00 78 1014.0
20260503100233 5 229 1.6 3.2 0.00 0.00 0.00 80 1014.1
20260503090410 2 219 0.0 0.0 0.00 0.00 0.00 99 1014.1
20260503080534 1 243 0.0 0.0 0.00 0.00 0.00 99 1014.1
20260503072933 1 243 0.0 0.0 0.00 0.00 0.00 99 1013.9
20260503072333 2 243 0.0 0.0 0.00 0.00 0.00 99 1013.9
20260503071733 2 243 0.0 0.0 0.00 0.00 0.00 99 1014.3
20260503071133 2 243 0.0 0.0 0.00 0.00 0.00 99 1014.1
20260503070533 2 243 0.0 0.0 0.00 0.00 0.00 99 1014.3
20260503054458 2 243 0.0 0.0 0.00 0.00 0.00 99 1014.5
20260503053938 2 243 0.0 0.0 0.00 0.00 0.00 99 1014.6
20260503053418 2 243 0.0 0.0 0.00 0.00 0.00 99 1014.6
20260503052858 2 243 0.0 0.0 0.00 0.00 0.00 99 1014.4
20260503052338 2 244 0.0 0.0 0.00 0.00 0.00 99 1014.6
20260503051803 2 243 0.0 0.0 0.00 0.00 0.00 99 1014.5
20260503051242 2 243 0.0 0.0 0.00 0.00 0.00 99 1014.4
20260503050722 2 244 0.0 0.0 0.00 0.00 0.00 99 1014.5
20260503050204 2 243 0.0 0.0 0.00 0.00 0.00 99 1014.5
20260503045642 2 244 0.0 0.0 0.00 0.00 0.00 99 1014.5
20260503045122 2 243 0.0 0.0 0.00 0.00 0.00 99 1014.4
20260503044603 2 243 0.0 0.0 0.00 0.00 0.00 99 1014.4
20260503044042 3 243 0.0 0.0 0.00 0.00 0.00 98 1014.3
20260503043433 3 243 0.0 0.0 0.00 0.00 0.00 98 1014.5
20260503042833 3 243 0.0 0.0 0.00 0.00 0.00 98 1014.5
20260503042233 3 243 0.0 0.0 0.00 0.00 0.00 98 1014.6
20260503041633 2 244 0.0 0.0 0.00 0.00 0.00 97 1014.5
20260503041033 3 244 0.0 0.0 0.00 0.00 0.00 97 1014.5
20260503040433 3 243 0.0 0.0 0.00 0.00 0.00 97 1014.4
20260503035833 3 243 0.0 0.0 0.00 0.00 0.00 96 1014.8
20260503035233 3 243 0.0 0.0 0.00 0.00 0.00 96 1014.7
20260503034633 3 243 0.0 0.0 0.00 0.00 0.00 96 1014.7
20260503034033 3 243 0.0 0.0 0.00 0.00 0.00 95 1014.7
20260503033433 3 243 0.0 0.0 0.00 0.00 0.00 95 1014.6
20260503032833 3 243 0.0 0.0 0.00 0.00 0.00 94 1014.6
20260503032233 3 244 0.0 0.0 0.00 0.00 0.00 94 1014.6
20260503031633 3 243 0.0 0.0 0.00 0.00 0.00 94 1014.5
20260503031033 3 243 0.0 0.0 0.00 0.00 0.00 93 1014.7
20260503030433 3 243 0.0 0.0 0.00 0.00 0.00 92 1014.4
20260503025833 3 244 0.0 0.0 0.00 0.00 0.00 92 1014.6
20260503025233 3 244 0.0 0.0 0.00 0.00 0.00 91 1014.5
20260503024633 3 244 0.0 0.0 0.00 0.00 0.00 90 1014.5
20260503024130 4 244 0.0 0.0 0.00 0.00 0.00 90 1014.5
20260503023611 4 244 0.0 0.0 0.00 0.00 0.00 90 1014.5
20260503023051 5 243 0.0 1.6 0.00 0.00 0.00 90 1014.7
20260503022533 4 244 0.0 0.0 0.00 0.00 0.00 89 1014.3
20260503021933 4 244 0.0 0.0 0.00 0.00 0.00 88 1014.4
20260503021333 4 243 0.0 0.0 0.00 0.00 0.00 87 1014.5
20260503020826 5 244 0.0 0.0 0.00 0.00 0.00 86 1014.3
20260503020307 5 243 0.0 0.0 0.00 0.00 0.00 86 1014.5
20260503015746 5 243 0.0 0.0 0.00 0.00 0.00 83 1014.2
20260503015233 5 244 0.0 0.0 0.00 0.00 0.00 80 1014.2
20260503014633 5 244 0.0 0.0 0.00 0.00 0.00 79 1014.2
20260503014033 5 244 0.0 0.0 0.00 0.00 0.00 79 1013.9
20260503013433 6 244 0.0 0.0 0.00 0.00 0.00 78 1014.0